TimeEST,TemperatureF,Dew PointF,Humidity,Sea Level PressureIn,VisibilityMPH,Wind Direction,Wind SpeedMPH,Gust SpeedMPH,PrecipitationIn,Events,Conditions,WindDirDegrees,DateUTC
12:52 AM,23.0,19.0,85,30.14,10.0,Calm,Calm,-,N/A,,Clear,0,2012-11-06 05:52:00
1:52 AM,21.9,18.0,85,30.16,10.0,Calm,Calm,-,N/A,,Clear,0,2012-11-06 06:52:00
2:52 AM,21.0,18.0,88,30.17,10.0,Calm,Calm,-,N/A,,Clear,0,2012-11-06 07:52:00
3:52 AM,19.9,16.0,85,30.17,10.0,Calm,Calm,-,N/A,,Clear,0,2012-11-06 08:52:00
4:52 AM,19.9,16.0,85,30.17,10.0,Calm,Calm,-,N/A,,Clear,0,2012-11-06 09:52:00
5:52 AM,19.0,16.0,88,30.18,10.0,Calm,Calm,-,N/A,,Clear,0,2012-11-06 10:52:00
6:52 AM,19.9,17.1,89,30.19,10.0,Calm,Calm,-,N/A,,Clear,0,2012-11-06 11:52:00
7:52 AM,28.9,23.0,78,30.23,10.0,Calm,Calm,-,N/A,,Clear,0,2012-11-06 12:52:00
8:52 AM,36.0,21.0,55,30.23,10.0,NW,4.6,-,N/A,,Clear,320,2012-11-06 13:52:00
9:52 AM,37.9,17.1,43,30.24,10.0,North,4.6,-,N/A,,Clear,360,2012-11-06 14:52:00
10:52 AM,39.0,15.1,38,30.22,10.0,North,-9999.0,-,N/A,,Clear,0,2012-11-06 15:52:00
11:52 AM,41.0,15.1,35,30.22,10.0,NW,4.6,-,N/A,,Clear,310,2012-11-06 16:52:00
12:52 PM,42.1,15.1,34,30.20,10.0,Variable,5.8,-,N/A,,Clear,0,2012-11-06 17:52:00
1:52 PM,44.1,14.0,30,30.19,10.0,Calm,Calm,-,N/A,,Clear,0,2012-11-06 18:52:00
2:52 PM,43.0,12.9,30,30.18,10.0,Calm,Calm,-,0.00,,Clear,0,2012-11-06 19:52:00
3:52 PM,42.1,12.9,31,30.18,10.0,Calm,Calm,-,N/A,,Clear,0,2012-11-06 20:52:00
4:52 PM,37.0,18.0,46,30.19,10.0,East,3.5,-,N/A,,Clear,80,2012-11-06 21:52:00
5:52 PM,27.0,21.0,78,30.20,10.0,Calm,Calm,-,N/A,,Clear,0,2012-11-06 22:52:00
6:52 PM,28.0,21.0,75,30.21,10.0,Calm,Calm,-,N/A,,Clear,0,2012-11-06 23:52:00
7:52 PM,24.1,19.9,84,30.20,10.0,Calm,Calm,-,N/A,,Clear,0,2012-11-07 00:52:00
8:52 PM,24.1,19.9,84,30.20,10.0,Calm,Calm,-,N/A,,Clear,0,2012-11-07 01:52:00
9:52 PM,23.0,19.0,85,30.18,10.0,Calm,Calm,-,N/A,,Clear,0,2012-11-07 02:52:00
10:52 PM,21.9,18.0,85,30.17,10.0,Calm,Calm,-,N/A,,Clear,0,2012-11-07 03:52:00
11:52 PM,23.0,19.9,88,30.15,10.0,Calm,Calm,-,N/A,,Partly Cloudy,0,2012-11-07 04:52:00